Date,Installs,Update checks
2022-08-07,4,1
2022-08-08,20,1
2022-08-09,22,4
2022-08-10,22,6
2022-08-11,22,9
2022-08-12,21,6
2022-08-13,10,9
2022-08-14,12,11
2022-08-15,16,8
2022-08-16,27,11
2022-08-17,11,9
2022-08-18,10,11
2022-08-19,4,11
2022-08-20,2,7
2022-08-21,5,5
2022-08-22,3,9
2022-08-23,1,7
2022-08-24,1,9
2022-08-25,0,10
2022-08-26,2,9
2022-08-27,5,6
2022-08-28,6,14
2022-08-29,6,11
2022-08-30,9,7
2022-08-31,9,9
2022-09-01,4,5
2022-09-02,3,9
2022-09-03,4,7
2022-09-04,3,8
2022-09-05,5,8
2022-09-06,5,6
2022-09-07,4,10
2022-09-08,2,8
2022-09-09,2,8
2022-09-10,3,9
2022-09-11,15,11
2022-09-12,3,12
2022-09-13,6,11
2022-09-14,6,8
2022-09-15,2,9
2022-09-16,3,7
2022-09-17,1,10
2022-09-18,3,12
2022-09-19,5,14
2022-09-20,6,13
2022-09-21,6,14
2022-09-22,7,12
2022-09-23,12,14
2022-09-24,9,14
2022-09-25,2,13
2022-09-26,5,16
2022-09-27,1,11
2022-09-28,3,16
2022-09-29,1,14
2022-09-30,0,14
2022-10-01,3,17
2022-10-02,5,16
2022-10-03,9,15
2022-10-04,13,17
2022-10-05,8,12
2022-10-06,5,14
2022-10-07,3,17
2022-10-08,15,15
2022-10-09,3,13
2022-10-10,7,22
2022-10-11,9,15
2022-10-12,8,21
2022-10-13,9,22
2022-10-14,6,16
2022-10-15,9,15
2022-10-16,4,16
2022-10-17,3,19
2022-10-18,2,16
2022-10-19,1,18
2022-10-20,2,12
2022-10-21,8,14
2022-10-22,7,15
2022-10-23,8,13
2022-10-24,5,19
2022-10-25,2,10
2022-10-26,2,15
2022-10-27,4,13
2022-10-28,6,12
2022-10-29,8,13
2022-10-30,7,17
2022-10-31,10,18
2022-11-01,6,15
2022-11-02,2,16
2022-11-03,5,13
2022-11-04,2,15
2022-11-05,3,13
2022-11-06,3,16
2022-11-07,1,13
2022-11-08,3,12
2022-11-09,3,14
2022-11-10,2,10
2022-11-11,5,15
2022-11-12,10,11
2022-11-13,4,12
2022-11-14,1,15
2022-11-15,2,13
2022-11-16,5,11
2022-11-17,1,8
2022-11-18,7,7
2022-11-19,10,15
2022-11-20,3,8
2022-11-21,2,11
2022-11-22,1,14
2022-11-23,0,11
2022-11-24,1,14
2022-11-25,2,13
2022-11-26,4,12
2022-11-27,14,15
2022-11-28,5,18
2022-11-29,2,13
2022-11-30,5,11
2022-12-01,2,12
2022-12-02,4,13
2022-12-03,3,12
2022-12-04,2,8
2022-12-05,0,10
2022-12-06,0,12
2022-12-07,1,10
2022-12-08,1,11
2022-12-09,0,6
2022-12-10,0,8
2022-12-11,2,10
2022-12-12,2,10
2022-12-13,2,11
2022-12-14,0,12
2022-12-15,4,12
2022-12-16,2,10
2022-12-17,4,9
2022-12-18,3,10
2022-12-19,1,8
2022-12-20,2,12
2022-12-21,0,10
2022-12-22,2,10
2022-12-23,2,10
2022-12-24,2,9
2022-12-25,1,16
2022-12-26,1,9
2022-12-27,1,8
2022-12-28,2,6
2022-12-29,1,13
2022-12-30,5,9
2022-12-31,7,13
2023-01-01,6,7
2023-01-02,14,12
2023-01-03,6,11
2023-01-04,7,18
2023-01-05,3,11
2023-01-06,2,13
2023-01-07,4,8
2023-01-08,11,7
2023-01-09,5,15
2023-01-10,2,14
2023-01-11,2,9
2023-01-12,1,17
2023-01-13,3,12
2023-01-14,6,8
2023-01-15,2,14
2023-01-16,6,11
2023-01-17,8,12
2023-01-18,28,18
2023-01-19,21,17
2023-01-20,32,16
2023-01-21,32,22
2023-01-22,15,19
2023-01-23,11,20
2023-01-24,27,21
2023-01-25,29,28
2023-01-26,22,23
2023-01-27,30,29
2023-01-28,39,32
2023-01-29,11,28
2023-01-30,13,32
2023-01-31,11,31
2023-02-01,10,27
2023-02-02,17,30
2023-02-03,13,34
2023-02-04,22,32
2023-02-05,8,25
2023-02-06,13,31
2023-02-07,3,34
2023-02-08,10,28
2023-02-09,16,26
2023-02-10,14,25
2023-02-11,23,23
2023-02-12,23,26
2023-02-13,13,31
2023-02-14,10,36
2023-02-15,5,31
2023-02-16,2,31
2023-02-17,7,31
2023-02-18,15,25
2023-02-19,20,32
2023-02-20,9,36
2023-02-21,10,35
2023-02-22,8,37
2023-02-23,6,35
2023-02-24,8,35
2023-02-25,11,31
2023-02-26,11,32
2023-02-27,17,35
2023-02-28,14,30
2023-03-01,9,37
2023-03-02,13,30
2023-03-03,7,29
2023-03-04,8,38
2023-03-05,8,29
2023-03-06,7,38
2023-03-07,6,39
2023-03-08,13,33
2023-03-09,22,41
2023-03-10,14,44
2023-03-11,15,35
2023-03-12,17,40
2023-03-13,5,39
2023-03-14,13,38
2023-03-15,6,35
2023-03-16,13,45
2023-03-17,12,41
2023-03-18,20,46
2023-03-19,23,41
2023-03-20,8,44
2023-03-21,20,47
2023-03-22,14,51
2023-03-23,8,49
2023-03-24,12,44
2023-03-25,16,37
2023-03-26,18,41
2023-03-27,12,45
2023-03-28,15,46
2023-03-29,8,42
2023-03-30,13,57
2023-03-31,19,52
2023-04-01,16,55
2023-04-02,14,48
2023-04-03,6,50
2023-04-04,3,45
2023-04-05,7,49
2023-04-06,10,49
2023-04-07,10,39
2023-04-08,5,39
2023-04-09,10,41
2023-04-10,8,42
2023-04-11,3,46
2023-04-12,4,49
2023-04-13,9,48
2023-04-14,6,46
2023-04-15,20,40
2023-04-16,16,50
2023-04-17,10,46
2023-04-18,11,49
2023-04-19,7,38
2023-04-20,3,51
2023-04-21,0,43
2023-04-22,4,48
2023-04-23,7,39
2023-04-24,5,41
2023-04-25,3,47
2023-04-26,1,48
2023-04-27,1,45
2023-04-28,6,49
2023-04-29,15,42
2023-04-30,18,55
2023-05-01,13,41
2023-05-02,5,48
2023-05-03,4,49
2023-05-04,8,45
2023-05-05,5,41
2023-05-06,2,44
2023-05-07,4,47
2023-05-08,3,44
2023-05-09,5,41
2023-05-10,6,39
2023-05-11,9,40
2023-05-12,7,44
2023-05-13,13,38
2023-05-14,10,44
2023-05-15,11,44
2023-05-16,5,52
2023-05-17,4,47
2023-05-18,0,45
2023-05-19,7,53
2023-05-20,14,41
2023-05-21,8,38
2023-05-22,9,54
2023-05-23,8,38
2023-05-24,5,45
2023-05-25,0,36
2023-05-26,4,42
2023-05-27,2,31
2023-05-28,9,40
2023-05-29,13,40
2023-05-30,8,42
2023-05-31,9,46
2023-06-01,14,38
2023-06-02,10,46
2023-06-03,7,37
2023-06-04,12,46
2023-06-05,14,51
2023-06-06,7,47
2023-06-07,8,51
2023-06-08,6,48
2023-06-09,5,47
2023-06-10,5,46
2023-06-11,12,55
2023-06-12,11,43
2023-06-13,8,49
2023-06-14,7,41
2023-06-15,10,44
2023-06-16,13,48
2023-06-17,12,47
2023-06-18,8,48
2023-06-19,5,48
2023-06-20,5,52
2023-06-21,5,51
2023-06-22,8,44
2023-06-23,3,44
2023-06-24,10,39
2023-06-25,12,37
2023-06-26,13,52
2023-06-27,11,45
2023-06-28,6,50
2023-06-29,3,44
2023-06-30,1,44
2023-07-01,4,45
2023-07-02,4,45
2023-07-03,6,36
2023-07-04,6,44
2023-07-05,5,33
2023-07-06,6,40
2023-07-07,1,41
2023-07-08,0,40
2023-07-09,7,37
2023-07-10,6,39
2023-07-11,3,37
2023-07-12,13,40
2023-07-13,12,41
2023-07-14,12,49
2023-07-15,10,27
2023-07-16,12,47
2023-07-17,7,55
2023-07-18,2,54
2023-07-19,3,49
2023-07-20,8,52
2023-07-21,7,51
2023-07-22,9,45
2023-07-23,4,35
2023-07-24,6,42
2023-07-25,3,41
2023-07-26,6,42
2023-07-27,5,46
2023-07-28,5,45
2023-07-29,2,43
2023-07-30,1,39
2023-07-31,5,36
2023-08-01,2,34
2023-08-02,1,30
2023-08-03,5,39
2023-08-04,3,28
2023-08-05,5,33
2023-08-06,1,37
2023-08-07,6,33
2023-08-08,2,44
2023-08-09,1,30
2023-08-10,1,38
2023-08-11,2,38
2023-08-12,2,39
2023-08-13,1,37
2023-08-14,3,37
2023-08-15,6,41
2023-08-16,2,43
2023-08-17,5,37
2023-08-18,9,38
2023-08-19,8,36
2023-08-20,11,32
2023-08-21,3,41
2023-08-22,12,41
2023-08-23,12,38
2023-08-24,10,37
2023-08-25,0,35
2023-08-26,0,40
2023-08-27,6,38
2023-08-28,5,36
2023-08-29,8,47
2023-08-30,8,40
2023-08-31,1,43
2023-09-01,2,39
2023-09-02,4,45
2023-09-03,2,43
2023-09-04,1,32
2023-09-05,3,41
2023-09-06,5,46
2023-09-07,1,42
2023-09-08,4,41
2023-09-09,3,42
2023-09-10,6,42
2023-09-11,1,41
2023-09-12,1,39
2023-09-13,0,34
2023-09-14,2,39
2023-09-15,5,47
2023-09-16,17,33
2023-09-17,14,48
2023-09-18,3,40
2023-09-19,4,42
2023-09-20,2,42
2023-09-21,5,35
2023-09-22,3,45
2023-09-23,5,42
2023-09-24,1,41
2023-09-25,1,43
2023-09-26,0,40
2023-09-27,5,34
2023-09-28,10,35
2023-09-29,11,44
2023-09-30,9,33
2023-10-01,5,37
2023-10-02,3,35
2023-10-03,4,37
2023-10-04,4,38
2023-10-05,2,43
2023-10-06,5,45
2023-10-07,11,33
2023-10-08,11,32
2023-10-09,6,37
2023-10-10,5,37
2023-10-11,5,27
2023-10-12,1,42
2023-10-13,4,37
2023-10-14,1,36
2023-10-15,5,33
2023-10-16,1,37
2023-10-17,1,33
2023-10-18,2,39
2023-10-19,9,33
2023-10-20,10,40
2023-10-21,18,31
2023-10-22,10,32
2023-10-23,4,36
2023-10-24,2,38
2023-10-25,1,33
2023-10-26,2,37
2023-10-27,7,43
2023-10-28,6,39
2023-10-29,5,26
2023-10-30,5,37
2023-10-31,11,40
2023-11-01,6,40
2023-11-02,4,42
2023-11-03,3,43
2023-11-04,6,34
2023-11-05,1,46
2023-11-06,1,48
2023-11-07,2,37
2023-11-08,1,37
2023-11-09,2,38
2023-11-10,1,38
2023-11-11,1,36
2023-11-12,0,28
2023-11-13,1,38
2023-11-14,1,39
2023-11-15,1,40
2023-11-16,2,34
2023-11-17,5,34
2023-11-18,9,31
2023-11-19,9,35
2023-11-20,2,49
2023-11-21,7,36
2023-11-22,6,31
2023-11-23,3,44
2023-11-24,1,41
2023-11-25,2,37
2023-11-26,1,36
2023-11-27,1,31
2023-11-28,1,35
2023-11-29,2,39
2023-11-30,0,30
2023-12-01,1,38
2023-12-02,1,33
2023-12-03,3,26
2023-12-04,5,31
2023-12-05,1,20
2023-12-06,4,17
2023-12-07,0,20
2023-12-08,0,30
2023-12-09,7,17
2023-12-10,2,20
2023-12-11,6,21
2023-12-12,2,23
2023-12-13,2,23
2023-12-14,0,15
2023-12-15,3,22
2023-12-16,1,18
2023-12-17,0,15
2023-12-18,2,10
2023-12-19,1,17
2023-12-20,0,14
2023-12-21,2,16
2023-12-22,1,13
2023-12-23,0,14
2023-12-24,1,18
2023-12-25,0,15
2023-12-26,4,13
2023-12-27,4,16
2023-12-28,2,17
2023-12-29,5,20
2023-12-30,1,18
2023-12-31,2,21
2024-01-01,1,12
2024-01-02,0,14
2024-01-03,1,13
2024-01-04,2,19
2024-01-05,0,14
2024-01-06,0,13
2024-01-07,1,16
2024-01-08,1,14
2024-01-09,2,12
2024-01-10,5,8
2024-01-11,2,13
2024-01-12,3,13
2024-01-13,5,11
2024-01-14,5,19
2024-01-15,1,16
2024-01-16,3,18
2024-01-17,3,15
2024-01-18,2,18
2024-01-19,1,20
2024-01-20,4,21
2024-01-21,2,16
2024-01-22,3,17
2024-01-23,1,15
2024-01-24,3,17
2024-01-25,0,24
2024-01-26,0,22
2024-01-27,6,21
2024-01-28,1,14
2024-01-29,1,21
2024-01-30,2,18
2024-01-31,0,14
2024-02-01,2,21
2024-02-02,0,15
2024-02-03,3,21
2024-02-04,3,21
2024-02-05,0,15
2024-02-06,2,24
2024-02-07,3,17
2024-02-08,5,19
2024-02-09,1,20
2024-02-10,3,18
2024-02-11,2,18
2024-02-12,0,17
2024-02-13,0,16
2024-02-14,1,15
2024-02-15,3,17
2024-02-16,3,16
2024-02-17,1,18
2024-02-18,6,22
2024-02-19,2,13
2024-02-20,1,20
2024-02-21,1,24
2024-02-22,1,12
2024-02-23,4,21
2024-02-24,4,15
2024-02-25,2,18
2024-02-26,0,26
2024-02-27,1,21
2024-02-28,1,13
2024-02-29,2,23
2024-03-01,3,19
2024-03-02,2,18
2024-03-03,0,11
2024-03-04,1,19
2024-03-05,2,17
2024-03-06,0,24
2024-03-07,2,18
2024-03-08,3,18
2024-03-09,2,17
2024-03-10,0,16
2024-03-11,3,14
2024-03-12,0,19
2024-03-13,2,21
2024-03-14,1,15
2024-03-15,1,18
2024-03-16,3,18
2024-03-17,6,20
2024-03-18,4,16
2024-03-19,2,14
2024-03-20,2,19
2024-03-21,1,18
2024-03-22,16,19
2024-03-23,29,15
2024-03-24,16,16
2024-03-25,11,24
2024-03-26,22,24
2024-03-27,12,16
2024-03-28,6,26
2024-03-29,4,20
2024-03-30,12,14
2024-03-31,9,19
2024-04-01,9,19
2024-04-02,8,22
2024-04-03,7,19
2024-04-04,9,22
2024-04-05,17,28
2024-04-06,12,19
2024-04-07,9,17
2024-04-08,3,23
2024-04-09,2,21
2024-04-10,2,15
2024-04-11,3,25
2024-04-12,5,23
2024-04-13,4,11
2024-04-14,0,18
2024-04-15,3,20
2024-04-16,1,18
2024-04-17,3,23
2024-04-18,5,22
2024-04-19,2,19
2024-04-20,4,16
2024-04-21,3,18
2024-04-22,4,21
2024-04-23,7,19
2024-04-24,7,24
2024-04-25,6,23
2024-04-26,1,26
2024-04-27,3,17
2024-04-28,3,22
2024-04-29,6,16
2024-04-30,0,17
2024-05-01,2,16
2024-05-02,4,15
2024-05-03,0,15
2024-05-04,1,12
2024-05-05,6,23
2024-05-06,0,16
2024-05-07,2,16
2024-05-08,4,15
2024-05-09,2,15
2024-05-10,0,24
2024-05-11,2,20
2024-05-12,3,10
2024-05-13,0,17
2024-05-14,0,15
2024-05-15,4,15
2024-05-16,1,16
2024-05-17,0,19
2024-05-18,2,17
2024-05-19,4,16
2024-05-20,2,15
